Welcome to our new website - Welkom op onze vernieuwde website - Bienvenue sur notre nouveau site web - Willkommen auf unserer neuen Website


Onweer radar Meer informatie blitzortung!


Regen radar Meer informatie rain snow radar


Andere websites:

Onze vorige site

Leuven Template



Select another period ( hide this area )

Eenheden Periode Custom range Directly to
Metrisch Engels Beide
Dagelijkse Wekelijkse Maandelijkse Jaarlijkse
use both date-selectors for a custom range
previous Dag
With this date

WeatherUnderground graphs for this period ( click here )


Dagelijkse Samenvatting Zondag 29 maart 2020
Tijd Temp. ( °C ) Dew pt. ( °C ) Wind ( km/h ) van Windvlaag ( km/h ) Luchtdruk ( hPa ) Humid.( % ) Rainrate ( cm )
Hoog5,6 0,5 40,2 NO ( 828/1442 ) 48,3 1035,7 77 -
Gemiddeld4,5 -2,4 23,6 NO #35/61 37,4 1032,5 61 -
Laag2,4 -6,0 9,7   19,3 1027,7 47 -
Dagelijkse Tabular details for Zondag 29 maart 2020
Tijd Temp. ( °C ) Dew pt. ( °C ) Wind ( km/h ) van Windvlaag ( km/h ) Luchtdruk ( hPa ) Humid.( % ) Rainrate ( cm )
00:00 4,4 0,0 11,3 NO 22,5 1027,7 73 -
00:15 4,2 0,2 19,3 NNO 22,5 1027,8 75 -
00:30 4,3 0,5 9,7 NO 27,4 1028,0 76 -
00:45 4,1 0,3 12,9 NO 25,7 1028,1 76 -
01:00 4,0 0,3 16,1 NNO 22,5 1028,4 77 -
01:15 3,9 0,3 11,3 NO 22,5 1028,5 77 -
01:30 4,0 -0,4 12,9 NO 32,2 1028,6 73 -
01:45 3,9 -0,6 25,7 NNO 30,6 1028,8 72 -
02:00 4,0 -0,4 11,3 NNO 30,6 1029,0 73 -
02:15 4,1 -0,7 20,9 ONO 37,0 1029,3 71 -
02:30 4,1 -0,7 30,6 ONO 35,4 1029,5 71 -
02:45 4,3 -0,5 16,1 NNO 41,8 1029,9 71 -
03:00 4,1 -0,7 14,5 NNO 35,4 1030,2 71 -
03:15 4,4 -0,6 20,9 NO 41,8 1030,4 70 -
03:30 4,4 -0,6 24,1 NNO 40,2 1030,7 70 -
03:45 4,6 -0,4 16,1 NNO 37,0 1030,9 70 -
04:00 4,8 -0,4 25,7 ONO 40,2 1031,3 69 -
04:15 4,7 -0,9 37,0 NNO 48,3 1031,5 67 -
04:30 4,9 -0,5 29,0 NO 45,1 1031,5 68 -
04:45 4,7 -1,1 35,4 NO 46,7 1031,7 66 -
05:00 4,6 -0,8 25,7 NO 45,1 1031,9 68 -
05:15 5,3 -0,4 35,4 NO 46,7 1032,2 67 -
05:30 5,1 -0,7 24,1 NO 45,1 1032,2 66 -
05:45 5,3 -0,2 35,4 NO 45,1 1032,3 68 -
06:00 4,8 -0,6 30,6 NO 43,4 1032,5 68 -
06:15 4,6 -0,8 32,2 NO 45,1 1032,7 68 -
06:30 5,1 -1,0 24,1 ONO 43,4 1032,8 65 -
06:45 5,6 -0,9 20,9 ONO 43,4 1032,9 63 -
07:00 5,3 -1,6 30,6 NO 43,4 1033,0 61 -
07:15 4,9 -2,0 30,6 NO 46,7 1033,2 61 -
07:30 4,8 -2,1 33,8 NNO 48,3 1033,2 61 -
07:45 5,2 -2,2 32,2 NO 43,4 1033,3 59 -
08:00 5,5 -3,1 30,6 NNO 43,4 1033,4 54 -
08:15 5,4 -2,7 40,2 NNO 48,3 1033,4 56 -
08:30 5,5 -2,8 32,2 ONO 41,8 1033,4 55 -
08:45 5,4 -2,5 33,8 NO 41,8 1033,5 57 -
09:00 5,2 -3,3 27,4 NO 46,7 1033,6 54 -
09:15 5,4 -2,9 19,3 NO 45,1 1033,5 55 -
09:30 5,2 -3,9 25,7 NNO 43,4 1033,7 52 -
09:45 5,5 -3,6 29,0 NO 41,8 1033,7 52 -
10:00 5,3 -4,5 27,4 NO 41,8 1033,8 49 -
10:15 5,3 -5,1 24,1 NNO 41,8 1034,0 47 -
10:30 5,3 -4,5 25,7 NO 37,0 1033,9 49 -
10:45 4,9 -4,9 19,3 NO 41,8 1034,1 49 -
11:00 5,1 -5,1 30,6 NO 37,0 1034,2 48 -
11:15 4,9 -5,2 19,3 Noorden 40,2 1034,3 48 -
11:30 4,8 -5,5 22,5 NO 41,8 1034,5 47 -
11:45 5,0 -4,3 29,0 NO 38,6 1034,6 51 -
12:00 4,6 -5,5 12,9 NO 33,8 1034,6 48 -
12:15 4,5 -5,9 27,4 NO 40,2 1034,5 47 -
12:30 4,4 -6,0 25,7 NO 40,2 1034,6 47 -
12:45 4,0 -5,8 22,5 NNO 38,6 1034,8 49 -
13:00 3,9 -5,0 32,2 ONO 32,2 1034,8 52 -
13:15 3,8 -5,4 20,9 NO 30,6 1035,0 51 -
13:30 3,5 -5,2 14,5 NO 29,0 1035,1 53 -
13:45 3,2 -4,7 20,9 NNO 30,6 1035,2 56 -
14:00 3,1 -4,6 11,3 NO 22,5 1035,3 57 -
14:15 2,8 -4,2 16,1 NO 20,9 1035,4 60 -
14:30 2,7 -3,8 14,5 Noorden 22,5 1035,5 62 -
14:45 2,5 -3,6 14,5 NO 25,7 1035,6 64 -
15:00 2,4 -3,5 16,1 NNO 19,3 1035,7 65 -
Dagelijkse Samenvatting Zondag 29 maart 2020
Tijd Temp. ( °C ) Dew pt. ( °C ) Wind ( km/h ) van Windvlaag ( km/h ) Luchtdruk ( hPa ) Humid.( % ) Rainrate ( cm )
Hoog5,6 0,5 40,2 NO ( 828/1442 ) 48,3 1035,7 77 -
Gemiddeld4,5 -2,4 23,6 NO #35/61 37,4 1032,5 61 -
Laag2,4 -6,0 9,7   19,3 1027,7 47 -
Dagelijkse Tabular details for Zondag 29 maart 2020
Tijd Temp. ( °C ) Dew pt. ( °C ) Wind ( km/h ) van Windvlaag ( km/h ) Luchtdruk ( hPa ) Humid.( % ) Rainrate ( cm )
00:00 4,4 0,0 11,3 NO 22,5 1027,7 73 -
00:15 4,2 0,2 19,3 NNO 22,5 1027,8 75 -
00:30 4,3 0,5 9,7 NO 27,4 1028,0 76 -
00:45 4,1 0,3 12,9 NO 25,7 1028,1 76 -
01:00 4,0 0,3 16,1 NNO 22,5 1028,4 77 -
01:15 3,9 0,3 11,3 NO 22,5 1028,5 77 -
01:30 4,0 -0,4 12,9 NO 32,2 1028,6 73 -
01:45 3,9 -0,6 25,7 NNO 30,6 1028,8 72 -
02:00 4,0 -0,4 11,3 NNO 30,6 1029,0 73 -
02:15 4,1 -0,7 20,9 ONO 37,0 1029,3 71 -
02:30 4,1 -0,7 30,6 ONO 35,4 1029,5 71 -
02:45 4,3 -0,5 16,1 NNO 41,8 1029,9 71 -
03:00 4,1 -0,7 14,5 NNO 35,4 1030,2 71 -
03:15 4,4 -0,6 20,9 NO 41,8 1030,4 70 -
03:30 4,4 -0,6 24,1 NNO 40,2 1030,7 70 -
03:45 4,6 -0,4 16,1 NNO 37,0 1030,9 70 -
04:00 4,8 -0,4 25,7 ONO 40,2 1031,3 69 -
04:15 4,7 -0,9 37,0 NNO 48,3 1031,5 67 -
04:30 4,9 -0,5 29,0 NO 45,1 1031,5 68 -
04:45 4,7 -1,1 35,4 NO 46,7 1031,7 66 -
05:00 4,6 -0,8 25,7 NO 45,1 1031,9 68 -
05:15 5,3 -0,4 35,4 NO 46,7 1032,2 67 -
05:30 5,1 -0,7 24,1 NO 45,1 1032,2 66 -
05:45 5,3 -0,2 35,4 NO 45,1 1032,3 68 -
06:00 4,8 -0,6 30,6 NO 43,4 1032,5 68 -
06:15 4,6 -0,8 32,2 NO 45,1 1032,7 68 -
06:30 5,1 -1,0 24,1 ONO 43,4 1032,8 65 -
06:45 5,6 -0,9 20,9 ONO 43,4 1032,9 63 -
07:00 5,3 -1,6 30,6 NO 43,4 1033,0 61 -
07:15 4,9 -2,0 30,6 NO 46,7 1033,2 61 -
07:30 4,8 -2,1 33,8 NNO 48,3 1033,2 61 -
07:45 5,2 -2,2 32,2 NO 43,4 1033,3 59 -
08:00 5,5 -3,1 30,6 NNO 43,4 1033,4 54 -
08:15 5,4 -2,7 40,2 NNO 48,3 1033,4 56 -
08:30 5,5 -2,8 32,2 ONO 41,8 1033,4 55 -
08:45 5,4 -2,5 33,8 NO 41,8 1033,5 57 -
09:00 5,2 -3,3 27,4 NO 46,7 1033,6 54 -
09:15 5,4 -2,9 19,3 NO 45,1 1033,5 55 -
09:30 5,2 -3,9 25,7 NNO 43,4 1033,7 52 -
09:45 5,5 -3,6 29,0 NO 41,8 1033,7 52 -
10:00 5,3 -4,5 27,4 NO 41,8 1033,8 49 -
10:15 5,3 -5,1 24,1 NNO 41,8 1034,0 47 -
10:30 5,3 -4,5 25,7 NO 37,0 1033,9 49 -
10:45 4,9 -4,9 19,3 NO 41,8 1034,1 49 -
11:00 5,1 -5,1 30,6 NO 37,0 1034,2 48 -
11:15 4,9 -5,2 19,3 Noorden 40,2 1034,3 48 -
11:30 4,8 -5,5 22,5 NO 41,8 1034,5 47 -
11:45 5,0 -4,3 29,0 NO 38,6 1034,6 51 -
12:00 4,6 -5,5 12,9 NO 33,8 1034,6 48 -
12:15 4,5 -5,9 27,4 NO 40,2 1034,5 47 -
12:30 4,4 -6,0 25,7 NO 40,2 1034,6 47 -
12:45 4,0 -5,8 22,5 NNO 38,6 1034,8 49 -
13:00 3,9 -5,0 32,2 ONO 32,2 1034,8 52 -
13:15 3,8 -5,4 20,9 NO 30,6 1035,0 51 -
13:30 3,5 -5,2 14,5 NO 29,0 1035,1 53 -
13:45 3,2 -4,7 20,9 NNO 30,6 1035,2 56 -
14:00 3,1 -4,6 11,3 NO 22,5 1035,3 57 -
14:15 2,8 -4,2 16,1 NO 20,9 1035,4 60 -
14:30 2,7 -3,8 14,5 Noorden 22,5 1035,5 62 -
14:45 2,5 -3,6 14,5 NO 25,7 1035,6 64 -
15:00 2,4 -3,5 16,1 NNO 19,3 1035,7 65 -

Download your copy of this data-set  here

Our weather-data as stored at Weather Underground. Script ontwikkeld door Jim McMurry. Aangepast voor de template door Leuven-Template.eu

U vindt ons ook hier:

European Weather Network

Weather Underground

AWEKAS

Apparatuur in gebruik:

Weerstation
Davis VP2

Weerprogramma
Cumulus

Davis VP2

Cumulus